This demonstration page uses our WeatherBlox Daily Observations layout. Learn more.

Left ArrowRight Arrow

Hourly Observations for December 30, 2018

Temp ( °F °C ) Dew Point ( °F °C ) Humidity (%) Winds ( mph kmh ) Pressure ( in mb ) Visibility ( mi km ) Precip ( " mm )
12:53 am 00:53 Clear 23 -5 15 -9.4 72 72 SSW 12 19 30.03 1017 10 16 0.00 0.00
1:53 am 01:53 Clear 22 -5.6 15 -9.4 75 75 SW 10 17 30.00 1016 10 16 0.00 0.00
2:53 am 02:53 Clear 22 -5.6 15 -9.4 75 75 SW 10 17 29.98 1015 10 16 0.00 0.00
3:53 am 03:53 Clear 22 -5.6 15 -9.4 75 75 SSW 10 17 29.96 1014 10 16 0.00 0.00
4:53 am 04:53 Clear 22 -5.6 15 -9.4 75 75 SW 12 19 29.92 1013 10 16 0.00 0.00
5:53 am 05:53 Clear 22 -5.6 15 -9.4 75 75 SSW 9 15 29.90 1012 10 16 0.00 0.00
6:53 am 06:53 Clear 22 -5.6 15 -9.4 75 75 SSW 12 19 29.88 1012 10 16 0.00 0.00
7:53 am 07:53 Clear 21 -6.1 15 -9.4 78 78 SSW 12 19 29.89 1012 10 16 0.00 0.00
8:53 am 08:53 Sunny 23 -5 15 -9.4 72 72 SSW 10 17 29.88 1012 10 16 0.00 0.00
9:53 am 09:53 Sunny 25 -3.9 17 -8.3 72 72 SW 7 11 29.87 1012 10 16 0.00 0.00
10:53 am 10:53 Sunny 28 -2.2 19 -7.2 69 69 S 9 15 29.85 1011 10 16 0.00 0.00
11:53 am 11:53 Sunny 32 0 21 -6.1 64 64 SW 10 17 29.81 1009 10 16 0.00 0.00
12:53 pm 12:53 Sunny 34 1.1 22 -5.6 61 61 SSW 10 17 29.78 1008 10 16 0.00 0.00
1:53 pm 13:53 Sunny 36 2.2 24 -4.4 62 62 S 12 19 29.75 1007 10 16 0.00 0.00
2:53 pm 14:53 Sunny 38 3.3 25 -3.9 60 60 S 9 15 29.72 1007 10 16 0.00 0.00
3:53 pm 15:53 Sunny 37 2.8 27 -2.8 67 67 S 15 24 29.72 1006 10 16 0.00 0.00
4:53 pm 16:53 Sunny 36 2.2 27 -2.8 70 70 S 13 20 29.71 1006 10 16 0.00 0.00
5:53 pm 17:53 Clear 34 1.1 26 -3.3 73 73 S 8 13 29.71 1006 10 16 0.00 0.00
6:53 pm 18:53 Clear 30 -1.1 24 -4.4 79 79 Calm 29.73 1007 10 16 0.00 0.00
7:53 pm 19:53 Clear 28 -2.2 24 -4.4 85 85 Calm 29.72 1007 10 16 0.00 0.00
8:53 pm 20:53 Clear 29 -1.7 24 -4.4 82 82 S 3 6 29.71 1006 10 16 0.00 0.00
9:53 pm 21:53 Clear 30 -1.1 24 -4.4 79 79 S 6 9 29.69 1005 10 16 0.00 0.00
10:53 pm 22:53 Clear 30 -1.1 25 -3.9 82 82 S 8 13 29.68 1005 10 16 0.00 0.00
11:53 pm 23:53 Clear 29 -1.7 25 -3.9 85 85 S 6 9 29.67 1005 9 14 0.00 0.00

Powered by AerisWeather